Regional Weather Roundup
Issued by NWS Jackson, KY

Home | Current Version | Previous Version | Text Only | Print | Product List | Glossary On
Versions: 1 2 3 4 5 6 7 8 9 10 11 12 13 14 15 16 17 18 19 20 21 22 23 24 25 26 27 28 29 30 31 32 33 34 35 36 37 38 39 40 41 42 43 44 45 46 47 48 49 50
000
ASUS43 KJKL 151019
RWRJKL

EAST KENTUCKY HOURLY WEATHER ROUNDUP
NATIONAL WEATHER SERVICE JACKSON KY
600 AM EDT MON SEP 15 2014

NOTE: "FAIR" INDICATES FEW OR NO CLOUDS BELOW 12,000 FEET WITH
NO SIGNIFICANT WEATHER AND/OR OBSTRUCTIONS TO VISIBILITY.

* THESE REPORTS ARE NOT UNDER NWS QUALITY CONTROL AND MAY NOT
  REPORT WEATHER SUCH AS PRECIPITATION AND FOG.

KYZ079-080-083-085-087-088-110-112-115-119-120-151100
...EASTERN KENTUCKY...

CITY           SKY/WX    TMP DP  RH WIND       PRES   REMARKS
JACKSON        CLEAR     55  52  89 CALM      30.21R
LONDON         CLEAR     55  52  89 CALM      30.21R
MONTICELLO*    FOG       53  53 100 CALM      30.22S VSB 1/4
WILLIAMSBURG*  CLOUDY    57  57 100 CALM      30.21R
MIDDLESBORO*   CLOUDY    61  61 100 CALM      30.22R FOG
HARLAN APT*    CLOUDY    61  59  94 MISG      30.21S
BLACK MTN*       N/A     55  55 100 SW5         N/A
PIKEVILLE APT* FOG       54  54 100 CALM      30.21S VSB 0
BIG SANDY*     FOG       50  50 100 CALM      30.21S VSB 1/4
MOREHEAD APT*  SUNNY     48  46  93 S5        30.23R
ASHLAND*       CLOUDY    52  46  82 CALM      30.21  VSB 1/4
$$

KYZ035-036-041-042-044-050-067-078-099-151100
...CENTRAL KENTUCKY...

CITY           SKY/WX    TMP DP  RH WIND       PRES   REMARKS
MT STERLING*   CLEAR     46  46 100 CALM      30.23R
FLEMING/MASON* CLEAR     46  46 100 E3        30.22R
DANVILLE*      CLEAR     46  46 100 CALM      30.21S
RICHMOND*      CLEAR     50  48  93 CALM      30.19S
LEXINGTON      PTCLDY    53  47  79 CALM      30.20S
FRANKFORT      CLEAR     48  46  93 N3        30.20R
$$

KYZ091>093-OHZ055-061-077-WVZ005-015-034-035-042-151100
...SOUTHERN OHIO/WEST VIRGINIA...

CITY           SKY/WX    TMP DP  RH WIND       PRES   REMARKS
COVINGTON      PTCLDY    52  48  87 N3        30.22R
COLUMBUS       CLEAR     50  44  80 CALM      30.23R
DAYTON         CLEAR     48  45  89 NE3       30.23R
WILMINGTON     CLEAR     46  43  89 CALM      30.22R
HUNTINGTON     FOG       48  48 100 CALM      30.21R VSB 1/4
CHARLESTON     FOG       50  50 100 CALM      30.22S VSB 1/2
PINEVILLE*     CLOUDY    62  62 100 MISG      30.28S FOG
BECKLEY        FOG       57  55  93 CALM      30.25R VSB 1/2
BLUEFIELD      FOG       58  55  90 CALM      30.26S VSB 1/2
$$

VAZ002-007-008-TNZ017-027-036-066-071-151100
...SOUTHWEST VIRGINIA/EAST TENNESSEE...

CITY           SKY/WX    TMP DP  RH WIND       PRES   REMARKS
WISE*          FOG       59  59 100 CALM      30.25S VSB<1/4
JONESVILLE*    CLOUDY    59  59 100 CALM      30.23S FOG
ABINGDON*      CLOUDY    61  61  99 CALM      30.23S
BRISTOL        CLOUDY    61  58  90 CALM      30.22R
KNOXVILLE      CLOUDY    67  66  97 SW5       30.19R
OAK RIDGE      CLOUDY    67  65  93 CALM      30.21R
CROSSVILLE     FOG       64  61  90 CALM      30.22R VSB 1/2
NASHVILLE      MOCLDY    57  55  93 CALM      30.19R
$$

...KEY TO REMARKS...
VSB - VISIBILITY IN MILES
WCI - WIND CHILL INDEX
HX  - HEAT INDEX

$$


USA.gov is the U.S. government's official web portal to all federal, state and local government web resources and services.